STARLINK-5649, 55354

Orbit data source: Space-Track

STARLINK-5649, 55354 is a payload satellite owned by SpaceX/Seattle (US) in LEO that was launched on Thu, 26 Jan 2023 UTC via an FALCON 9 launch vehicle from the Air Force Eastern Test Range (AFETR). Payload-class satellites include a variety of spacecraft equipped with specific instruments for various scientific and technological missions. These include communications satellites like Starlink; space stations such as the ISS; scientific satellites like the Hubble; Earth observation satellites from companies like Planet Labs, Umbra, and HawkEye 360; GPS; miniature CubeSats for education and research; and military/defense satellites.

Loading next visibility...
Identifier
55354, 2023-013Z
Orbit
LEO
Country
Flag of USUS
Related business
Manufacturer
SpaceX/Seattle
Mission
Operational Commercial Communications
Bus & Motor
STARLINK, Unknown motor
Mass
305 kg wet, ~290 kg dry
Launch date (UTC)
2023-01-26 (3 years ago)
Launch vehicle
FALCON 9
Launch site
Air Force Eastern Test Range (AFETR)
Object type
Payload
Rocket body
Debris
Shape & HBR
Box + 1 Pan, 10.1 m
Radar Cross Section
13.562 m², Large (>1 m²)

Expand to show TLE details & history
Last TLE update: 1 day ago

TLE from 1 day ago
0 STARLINK-5649
1 55354U 23013Z   25349.40978345  .00000579  00000-0  57911-4 0  9992
2 55354  43.0056  38.1026 0001285 260.3676  99.7021 15.02534855159032
Epoch: 2025-12-15T09:50Z
TLE epoch observation values (Epoch: 2025-12-15T09:50:05.290Z)
Latitude
-0.00002°
Longitude
166.27178°
Altitude
559.012 km
Speed
7.584 km/s
True Right ascension
02h 32m 24s
True Declination
0° 00' 00"
Sunlit
Object was in full shadow at epoch
Visualization orbit readout
Latitude
Unknown
Longitude
Unknown
Altitude
Unknown
Speed
Unknown
Apparent Right ascension
Unknown
Apparent Declination
Unknown
Sunlit
N/A
Visualization observer readout
Local Sidereal Time
08:24:12
Azimuth
Unknown
Elevation
Unknown
Doppler factor
Unknown
Orbital elements
Apogee altitude
561.898 km
Perigee altitude
560.114 km
Semi-major axis
6,939.143 km
Eccentricity
0.00013
Inclination
43.0056°
RAAN
38.1026°
Arg. of periapsis
260.3676°
True anomaly
99.71661°
Mean anomaly
99.7021°
Eccentric anomaly
99.70936°
Mean motion
3.75478 °/min
Orbital period
95.88 mins
BSTAR
0.000057911
Loading maneuver chart data...
Computing Atmospheric mass density...
Loading historical data...
Loading historical data...
Loading historical data...
Loading historical data...
Loading historical data...
Loading historical data...
Loading historical data...

Documentation

Showing up to 5 results
|